"2017-11-29 21:30:00",323,765.2657,0.174,12.85,0.065,90.6,90.2,90.9,0.1518916,0.019,"NAN",0.1591422,0.019,"NAN",179.9443,27.18
"2017-11-29 22:00:00",324,765.2166,0.17,12.71,0.088,90.3,90.2,90.6,0.1240624,0.018,"NAN",0.1296867,0.018,"NAN",140.0479,23.93
"2017-11-29 22:30:00",325,765.1071,0.158,12.54,0.076,88.7,88.7,90.3,0.05739564,0.016,"NAN",0.06202131,0.017,"NAN",60.69188,20.07
"2017-11-29 23:00:00",326,764.986,0.149,12.37,0.056,87.8,87.7,88.8,0.0461124,0.005,"NAN",0.04943261,0.005,"NAN",45.18227,5.595
"2017-11-29 23:30:00",327,764.8229,0.17,12.41,0.082,86.6,86.5,87.9,0.03395657,0.011,"NAN",0.03512485,0.01,"NAN",5.950419,27.97
"2017-11-30 00:00:00",328,764.6561,0.182,12.46,0.051,85.3,85.3,86.7,0.01021616,0.006,"NAN",0.0105733,0.007,"NAN",-49.75012,7.249
"2017-11-30 00:30:00",329,764.4692,0.177,12.43,0.085,86.7,85,86.7,0.000681053,0.001,"NAN",0.0002054996,0,"NAN",-70.97961,8.22
"2017-11-30 01:00:00",330,764.32,0.182,12.25,0.039,87.8,86.7,88,3.35482E-06,0,"NAN",0,0,"NAN",-72.58995,6.207
"2017-11-30 01:30:00",331,764.3617,0.152,12.26,0.031,89.2,87.8,89.2,3.354726E-06,0,"NAN",0,0,"NAN",-70.70381,7.076
"2017-11-30 02:00:00",332,764.3182,0.169,12.25,0.033,90.3,89.2,90.3,0,0,"NAN",0,0,"NAN",-75.20908,6.33
"2017-11-30 02:30:00",333,764.08,0.177,12.27,0.03,91.2,90.3,91.2,0,0,"NAN",0,0,"NAN",-75.70479,3.528
"2017-11-30 03:00:00",334,763.8317,0.177,12.22,0.049,91.5,91.1,91.5,0,0,"NAN",0,0,"NAN",-76.30132,6.733
"2017-11-30 03:30:00",335,763.6076,0.163,12.21,0.044,91.7,91.5,91.8,0,0,"NAN",0,0,"NAN",-66.79388,5.79
"2017-11-30 04:00:00",336,763.3867,0.164,12.14,0.048,92.2,91.8,92.2,0,0,"NAN",0,0,"NAN",-67.88569,2.527
"2017-11-30 04:30:00",337,763.0228,0.154,12.16,0.054,91.5,91.4,92.2,0,0,"NAN",0,0,"NAN",-67.09413,4.821
"2017-11-30 05:00:00",338,762.7298,0.183,12.37,0.086,88.6,88.6,91.5,0,0,"NAN",0,0,"NAN",-64.97493,6.791
"2017-11-30 05:30:00",339,762.4947,0.195,12.26,0.071,88.3,88.2,88.5,0,0,"NAN",0,0,"NAN",-69.38596,5.278
"2017-11-30 06:00:00",340,762.1055,0.169,12.19,0.074,89.1,88.2,89.2,0,0,"NAN",0,0,"NAN",-67.2947,4.731
"2017-11-30 06:30:00",341,761.8592,0.193,12.1,0.07,90.1,89.2,90.1,0,0,"NAN",0,0,"NAN",-64.84714,4.527
"2017-11-30 07:00:00",342,761.6342,0.195,11.93,0.083,90,89.9,90.3,0,0,"NAN",0,0,"NAN",-59.88331,4.195
"2017-11-30 07:30:00",343,761.5287,0.152,11.86,0.066,90.2,89.8,90.4,0,0,"NAN",0,0,"NAN",-62.8667,4.633
"2017-11-30 08:00:00",344,761.4274,0.154,11.77,0.055,90.3,90.1,90.6,0,0,"NAN",0,0,"NAN",-69.8035,5.354
"2017-11-30 08:30:00",345,761.2966,0.178,11.73,0.077,91.1,90.2,91.2,0,0,"NAN",0,0,"NAN",-69.77558,5.08
"2017-11-30 09:00:00",346,761.1192,0.16,11.63,0.058,91,91,91.5,0,0,"NAN",0,0,"NAN",-60.21308,7.797
"2017-11-30 09:30:00",347,761.1273,0.157,11.71,0.074,91.4,90.9,91.4,0.001130479,0.001,"NAN",0.0004109807,0.001,"NAN",-53.32716,5.977
"2017-11-30 10:00:00",348,761.3625,0.181,11.66,0.09,90.9,90.9,91.6,0.01190528,0.007,"NAN",0.01001258,0.006,"NAN",-53.93518,6.998
"2017-11-30 10:30:00",349,761.5186,0.17,11.73,0.123,89.7,89.5,90.9,0.1003968,0.058,"NAN",0.06457553,0.032,"NAN",2.236043,36.16
"2017-11-30 11:00:00",350,761.5703,0.169,11.96,0.054,88.7,88.5,89.7,0.1004751,0.021,"NAN",0.08641765,0.016,"NAN",37.49548,15.47
"2017-11-30 11:30:00",351,761.6403,0.165,11.98,0.082,89.6,88.2,89.6,0.2247791,0.059,"NAN",0.1733954,0.042,"NAN",158.7929,49.23
"2017-11-30 12:00:00",352,761.6747,0.161,11.83,0.072,90.4,89.6,90.6,0.1832111,0.029,"NAN",0.1669225,0.021,"NAN",139.7031,26.51
"2017-11-30 12:30:00",353,761.7405,0.171,11.85,0.068,89.7,89.7,90.4,0.2822011,0.1,"NAN",0.2453886,0.07,"NAN",237.3824,97.2
"2017-11-30 13:00:00",354,761.7589,0.182,11.98,0.075,90,89.7,90,0.3629238,0.067,"NAN",0.3145194,0.037,"NAN",326.4963,60.82
"2017-11-30 13:30:00",355,761.6584,0.182,11.98,0.067,89.8,89.6,90.1,0.3822168,0.056,"NAN",0.3531345,0.044,"NAN",359.6544,57.83
"2017-11-30 14:00:00",356,761.5328,0.163,11.99,0.056,89.8,89.7,90.2,0.4963877,0.144,"NAN",0.454633,0.117,"NAN",473.5207,147.6
"2017-11-30 14:30:00",357,761.4578,0.172,12.12,0.079,88.1,88.1,89.8,0.5398399,0.085,"NAN",0.5181265,0.079,"NAN",530.2469,86.4
"2017-11-30 15:00:00",358,761.5115,0.165,12.36,0.102,86.8,86.7,87.9,0.4932879,0.157,"NAN",0.4936097,0.158,"NAN",486.2613,173.6
"2017-11-30 15:30:00",359,761.5369,0.165,12.44,0.057,86.4,86.1,87.1,0.576245,0.123,"NAN",0.5812382,0.125,"NAN",580.5892,135.3
"2017-11-30 16:00:00",360,761.5764,0.154,12.54,0.089,88.7,85.8,88.7,0.6079171,0.154,"NAN",0.6206452,0.161,"NAN",623.4747,180.4
"2017-11-30 16:30:00",361,761.5774,0.176,12.78,0.068,90,88.7,90.1,0.623036,0.142,"NAN",0.6419367,0.142,"NAN",640.1536,157.5
"2017-11-30 17:00:00",362,761.5551,0.155,12.87,0.042,90.3,89.9,90.5,0.6220143,0.144,"NAN",0.650411,0.143,"NAN",651.9055,155.9
"2017-11-30 17:30:00",363,761.5956,0.172,13.07,0.096,89.7,89.7,90.4,1.005523,0.161,"NAN",1.079117,0.076,"NAN",1104.307,98.6
"2017-11-30 18:00:00",364,761.6767,0.171,13.2,0.061,89.4,89,89.7,0.6633304,0.266,"NAN",0.7440172,0.28,"NAN",740.3203,307.9
"2017-11-30 18:30:00",365,761.6382,0.156,13.04,0.059,89.7,89.3,89.7,0.4600239,0.12,"NAN",0.4891142,0.125,"NAN",476.4759,136.5
"2017-11-30 19:00:00",366,761.5226,0.172,13.01,0.076,88.9,88.9,89.8,0.372836,0.043,"NAN",0.4078092,0.052,"NAN",390.4471,60
"2017-11-30 19:30:00",367,761.2652,0.18,13.15,0.054,88,87.9,89,0.3321851,0.051,"NAN",0.3560459,0.063,"NAN",338.6812,64.88
"2017-11-30 20:00:00",368,761.0746,0.174,13.22,0.041,87.1,87.1,88,0.3419787,0.05,"NAN",0.3972654,0.077,"NAN",373.0883,74.75
"2017-11-30 20:30:00",369,761.0624,0.177,13.2,0.054,87.6,87,87.7,0.3796624,0.083,"NAN",0.4600955,0.113,"NAN",428.6339,111.7
"2017-11-30 21:00:00",370,761.0878,0.178,13.04,0.066,87.6,87.6,88.4,0.3171799,0.121,"NAN",0.3582933,0.127,"NAN",331.4069,126
"2017-11-30 21:30:00",371,761.0078,0.173,12.96,0.083,87.6,87.3,88.1,0.3457912,0.134,"NAN",0.3562044,0.113,"NAN",336.5411,129.9
"2017-11-30 22:00:00",372,760.9286,0.159,12.98,0.067,86.9,86.5,87.6,0.3423204,0.113,"NAN",0.4081392,0.058,"NAN",335.8685,53.73
"2017-11-30 22:30:00",373,760.8192,0.164,12.95,0.075,86.5,86,86.9,0.2065753,0.097,"NAN",0.2576359,0.053,"NAN",154.7961,60.65
"2017-11-30 23:00:00",374,760.8527,0.189,12.91,0.033,85.8,85.7,86.6,0.1254793,0.056,"NAN",0.1615271,0.04,"NAN",58.53017,30.11
"2017-11-30 23:30:00",375,760.8111,0.189,12.84,0.054,86,85.5,86.2,0.08258907,0.035,"NAN",0.09177677,0.02,"NAN",13.9633,14.32
"2017-12-01 00:00:00",376,760.8172,0.178,12.8,0.051,85.8,85.8,86.6,0.03036636,0.015,"NAN",0.02867546,0.016,"NAN",-24.6363,11.47
"2017-12-01 00:30:00",377,760.7584,0.17,12.98,0.039,84.8,84.5,85.8,0.003086273,0.004,"NAN",0.002119311,0.003,"NAN",-50.5604,9.07
"2017-12-01 01:00:00",378,760.7746,0.171,12.88,0.039,85.8,84.9,85.8,0,0,"NAN",0,0,"NAN",-60.1132,6.392
"2017-12-01 01:30:00",379,760.9803,0.227,12.84,0.038,86.6,85.7,86.6,0,0,"NAN",0,0,"NAN",-66.7541,5.021
"2017-12-01 02:00:00",380,761.265,0.192,12.82,0.046,86.5,86.3,86.8,0,0,"NAN",0,0,"NAN",-74.69293,6.414
"2017-12-01 03:00:00",0,760.8483,0.173,12.88,0.06,87.4,85.7,87.4,0,0,"NAN",0,0,"NAN",-72.53201,4.093
"2017-12-01 03:30:00",1,760.424,0.251,12.65,0.114,88.5,87.3,88.5,0,0,"NAN",0,0,"NAN",-71.06516,4.854
"2017-12-01 04:00:00",2,760.3115,0.171,12.51,0.047,89.6,88.4,89.7,0,0,"NAN",0,0,"NAN",-73.36303,3.66
"2017-12-01 04:30:00",3,760.3338,0.188,12.36,0.087,90.3,89.7,90.3,0,0,"NAN",0,0,"NAN",-73.20059,4.105
"2017-12-01 05:00:00",4,759.9821,0.193,12.22,0.042,90.3,90.2,90.4,0,0,"NAN",0,0,"NAN",-72.11311,4.098
"2017-12-01 05:30:00",5,759.9041,0.198,12.16,0.07,91.1,90.4,91.1,0,0,"NAN",0,0,"NAN",-76.89127,4.892
"2017-12-01 06:00:00",6,759.7155,0.197,12.03,0.092,91.6,91.1,91.6,0,0,"NAN",0,0,"NAN",-76.43994,5.913
"2017-12-01 06:30:00",7,759.4965,0.186,11.97,0.067,91.9,91.6,91.9,0,0,"NAN",0,0,"NAN",-77.24308,4.288
"2017-12-01 07:00:00",8,759.3942,0.17,11.85,0.053,91.7,91.6,92,0,0,"NAN",0,0,"NAN",-77.57788,5.953
"2017-12-01 07:30:00",9,759.3587,0.222,11.76,0.073,91.2,91.2,91.7,0,0,"NAN",0,0,"NAN",-77.79559,4.691
"2017-12-01 08:00:00",10,759.1824,0.163,11.64,0.046,91.6,91.3,91.7,0,0,"NAN",0,0,"NAN",-83.08121,4.752
"2017-12-01 08:30:00",11,759.3486,0.179,11.57,0.076,91.5,91.4,91.7,0,0,"NAN",0,0,"NAN",-85.80923,7.123
"2017-12-01 09:00:00",12,759.2289,0.171,11.47,0.051,91.6,91.5,91.7,0,0,"NAN",0,0,"NAN",-84.60918,4.767
"2017-12-01 09:30:00",13,759.2959,0.174,11.45,0.083,91.6,91.5,91.7,0.001244552,0.001,"NAN",0.0002377208,0.001,"NAN",-86.04355,4.365
"2017-12-01 10:00:00",14,759.2888,0.152,11.44,0.06,91.7,91.6,91.9,0.03049595,0.031,"NAN",0.01828407,0.015,"NAN",-69.83211,14.5
"2017-12-01 10:30:00",15,759.5027,0.176,11.45,0.074,91.5,91.4,91.9,0.1125948,0.065,"NAN",0.06936833,0.025,"NAN",-17.8888,26.91
"2017-12-01 11:00:00",16,759.5999,0.171,11.39,0.072,91.3,91.1,91.5,0.1915048,0.077,"NAN",0.141968,0.056,"NAN",57.63585,31.98
"2017-12-01 11:30:00",17,759.6942,0.18,11.4,0.08,90.7,90.7,91.4,0.2965596,0.108,"NAN",0.199959,0.083,"NAN",175.1163,46.39
"2017-12-01 12:00:00",18,759.757,0.184,11.46,0.067,90,90,90.8,0.4008014,0.124,"NAN",0.2687617,0.114,"NAN",317.5302,53.75
"2017-12-01 12:30:00",19,759.9162,0.163,11.57,0.064,89.7,89.5,90.1,0.4960997,0.167,"NAN",0.4013304,0.156,"NAN",469.9974,46.63
"2017-12-01 13:00:00",20,759.9071,0.174,11.75,0.091,90.1,89.6,90.2,0.5868305,0.189,"NAN",0.4316613,0.19,"NAN",625.2838,49.5
"2017-12-01 13:30:00",21,760.0135,0.175,12,0.155,88.2,88.1,90.2,0.697578,0.159,"NAN",0.5483171,0.197,"NAN",744.5007,39.19
"2017-12-01 14:00:00",22,759.9395,0.184,12.08,0.12,88.8,88.2,89,0.7589015,0.187,"NAN",0.6959606,0.21,"NAN",857.4207,55.6
"2017-12-01 14:30:00",23,760.1696,0.179,12.36,0.067,85.9,85.8,88.7,0.856126,0.195,"NAN",0.844422,0.116,"NAN",935.5396,45.71
"2017-12-01 15:00:00",24,760.1888,0.165,12.55,0.098,83.6,82.8,85.8,0.8351623,0.288,"NAN",0.9552258,0.048,"NAN",1022.413,29.34
"2017-12-01 15:30:00",25,760.3014,0.162,12.57,0.085,85.1,83.5,85.1,0.9566206,0.171,"NAN",1.012045,0.026,"NAN",1090.863,45.99
"2017-12-01 16:00:00",26,760.3166,0.184,12.64,0.065,87.2,85.2,87.3,0.9899691,0.126,"NAN",1.043187,0.018,"NAN",1110.887,41.55
"2017-12-01 16:30:00",27,760.3926,0.197,12.74,0.066,88.4,87.3,88.5,1.001372,0.125,"NAN",1.065933,0.008,"NAN",1136.649,44.8
"2017-12-01 17:00:00",28,760.3561,0.168,12.81,0.053,87.4,87.3,88.5,0.9855324,0.161,"NAN",1.068695,0.008,"NAN",1127.738,44.21
"2017-12-01 17:30:00",29,760.3642,0.223,12.91,0.059,86,86,87.4,0.9761816,0.146,"NAN",1.054865,0.008,"NAN",1090.832,42.35
"2017-12-01 18:00:00",30,760.1523,0.171,12.96,0.046,85.5,85.4,85.9,0.8003781,0.349,"NAN",1.023054,0.015,"NAN",1049.237,36.83
"2017-12-01 18:30:00",31,760.0998,0.177,13.05,0.061,84.7,84.6,85.7,0.7555101,0.346,"NAN",0.9792202,0.025,"NAN",998.5624,38.73
"2017-12-01 19:00:00",32,759.9357,0.169,13.07,0.045,85.1,84.7,85.1,0.7056285,0.314,"NAN",0.9026276,0.044,"NAN",935.1627,43.62
"2017-12-01 19:30:00",33,759.8616,0.166,13.16,0.054,84.7,84.6,85.2,0.599408,0.305,"NAN",0.8116347,0.084,"NAN",831.9945,53.3
"2017-12-01 20:00:00",34,759.7354,0.197,13.2,0.065,84.6,83.9,84.9,0.5812808,0.253,"NAN",0.705343,0.123,"NAN",724.183,51.67
"2017-12-01 20:30:00",35,759.4377,0.214,13.03,0.08,85.7,84.6,85.8,0.4990965,0.227,"NAN",0.603654,0.112,"NAN",599.0018,61.92
"2017-12-01 21:00:00",36,759.2851,0.169,12.91,0.07,86.1,85.7,86.4,0.3844653,0.186,"NAN",0.506196,0.082,"NAN",461.9421,44.73
"2017-12-01 21:30:00",37,759.1994,0.202,12.91,0.071,86.9,86.3,86.9,0.3371865,0.128,"NAN",0.3987466,0.073,"NAN",339.9758,46.65
"2017-12-01 22:00:00",38,759.016,0.168,12.84,0.058,87.1,86.8,87.3,0.2613703,0.118,"NAN",0.296935,0.069,"NAN",214.8752,51.55
"2017-12-01 22:30:00",39,759.0657,0.162,12.89,0.063,87,86.9,87.5,0.1651388,0.094,"NAN",0.2090593,0.056,"NAN",98.88661,38.79
"2017-12-01 23:00:00",40,759.1534,0.171,12.93,0.047,86.9,86.8,87.2,0.1115571,0.063,"NAN",0.1268352,0.032,"NAN",9.346109,25.21
"2017-12-01 23:30:00",41,759.3485,0.173,13.03,0.046,86,85.9,86.9,0.04790238,0.034,"NAN",0.0585812,0.02,"NAN",-43.48536,14.3
"2017-12-02 00:00:00",42,759.5026,0.178,12.94,0.053,86.2,85.7,86.6,0.01214409,0.009,"NAN",0.01348579,0.01,"NAN",-66.20867,5.007
"2017-12-02 00:30:00",43,759.7336,0.173,12.91,0.051,86.6,86.2,86.9,0.0007178967,0.001,"NAN",6.849526E-05,0,"NAN",-77.70658,7.563
"2017-12-02 01:00:00",44,759.8199,0.199,12.96,0.05,84.5,84.4,86.7,0,0,"NAN",0,0,"NAN",-70.11748,6.811
"2017-12-02 01:30:00",45,759.9435,0.18,12.96,0.09,85.3,84.4,85.3,0,0,"NAN",0,0,"NAN",-70.04484,6.492
"2017-12-02 02:00:00",46,760.0032,0.159,12.73,0.069,86.5,85.4,86.5,0,0,"NAN",0,0,"NAN",-67.89793,5.058
"2017-12-02 02:30:00",47,760.1117,0.187,12.61,0.085,87.9,86.6,87.9,3.354652E-06,0,"NAN",0,0,"NAN",-69.55319,5.596
"2017-12-02 03:00:00",48,759.9506,0.154,12.5,0.037,89.4,87.9,89.4,0,0,"NAN",0,0,"NAN",-75.67039,5.673
"2017-12-02 03:30:00",49,760.0104,0.185,12.49,0.055,90.3,89.3,90.3,0,0,"NAN",0,0,"NAN",-80.25493,5.338
"2017-12-02 04:00:00",50,759.981,0.164,12.38,0.047,90.8,90.3,90.8,0,0,"NAN",0,0,"NAN",-88.99322,3.494
"2017-12-02 04:30:00",51,759.8827,0.207,12.39,0.061,91,90.9,91.1,0,0,"NAN",0,0,"NAN",-87.00168,3.685
"2017-12-02 05:00:00",52,759.6354,0.168,12.41,0.087,90.4,90.1,91,0,0,"NAN",0,0,"NAN",-78.19627,5.862
"2017-12-02 05:30:00",53,759.6343,0.189,12.37,0.092,90.6,90.4,90.7,0,0,"NAN",0,0,"NAN",-80.1541,3.833
"2017-12-02 06:00:00",54,759.455,0.191,12.27,0.041,90.9,90.6,90.9,0,0,"NAN",0,0,"NAN",-84.11925,4.136
"2017-12-02 06:30:00",55,759.3678,0.242,11.92,0.204,92,91,92,0,0,"NAN",0,0,"NAN",-88.94836,2.682
"2017-12-02 07:00:00",56,759.2278,0.17,11.78,0.091,92.5,92,92.5,0,0,"NAN",0,0,"NAN",-92.83496,2.74
"2017-12-02 07:30:00",57,759.3292,0.208,11.76,0.037,92.2,92.1,92.6,0,0,"NAN",0,0,"NAN",-93.18075,2.854
"2017-12-02 08:00:00",58,759.3829,0.176,11.72,0.041,92,92,92.2,0,0,"NAN",0,0,"NAN",-93.01402,2.425
"2017-12-02 08:30:00",59,759.5522,0.207,11.64,0.084,92,91.9,92.1,0,0,"NAN",0,0,"NAN",-95.97341,1.815
"2017-12-02 09:00:00",60,759.7012,0.204,11.7,0.066,91.9,91.9,92.1,0,0,"NAN",0,0,"NAN",-93.05141,3.133
"2017-12-02 09:30:00",61,759.832,0.2,11.91,0.078,92.3,91.8,92.3,0.001174101,0.001,"NAN",0.0003706802,0.001,"NAN",-84.01897,7.06
"2017-12-02 10:00:00",62,759.9688,0.203,12.04,0.09,93.1,92.3,93.1,0.01362936,0.007,"NAN",0.01562897,0.01,"NAN",-65.28223,7.764
"2017-12-02 10:30:00",63,760.3458,0.235,12.16,0.103,93.6,93,93.6,0.0351251,0.006,"NAN",0.04063714,0.007,"NAN",8.297466,32.22
"2017-12-02 11:00:00",64,760.6205,0.227,11.66,0.101,94.4,93.6,94.4,0.04590239,0.009,"NAN",0.04910241,0.01,"NAN",50.85539,12.46
"2017-12-02 11:30:00",65,760.88,0.228,11.52,0.112,94.6,94.3,94.6,0.07162886,0.007,"NAN",0.07666947,0.007,"NAN",79.38357,7.393
"2017-12-02 12:00:00",66,761.0513,0.22,11.4,0.06,94.8,94.5,94.8,0.08805674,0.011,"NAN",0.09334584,0.012,"NAN",95.93388,15.87
"2017-12-02 12:30:00",67,761.2206,0.205,11.63,0.13,94.6,94.5,94.9,0.1384699,0.02,"NAN",0.1488402,0.023,"NAN",161.2728,26.29
"2017-12-02 13:00:00",68,761.4122,0.195,11.81,0.078,93.9,93.9,94.6,0.192329,0.026,"NAN",0.207619,0.029,"NAN",225.5139,36.41
"2017-12-02 13:30:00",69,761.6544,0.177,11.91,0.068,92.8,92.7,94,0.2076303,0.03,"NAN",0.2225532,0.035,"NAN",237.5011,43.04
"2017-12-02 14:00:00",70,761.6098,0.186,12.02,0.072,91.8,91.8,92.7,0.252244,0.05,"NAN",0.2718714,0.06,"NAN",282.1649,66.22
"2017-12-02 14:30:00",71,761.772,0.203,12,0.082,92,91.7,92,0.2465262,0.032,"NAN",0.2576543,0.039,"NAN",270.9471,39.05
"2017-12-02 15:00:00",72,761.8885,0.171,12.06,0.078,91.6,91.5,92,0.3074088,0.027,"NAN",0.3226166,0.031,"NAN",355.9431,37.72
"2017-12-02 15:30:00",73,762.0061,0.187,12.25,0.092,90.6,90.6,91.7,0.4069994,0.081,"NAN",0.4397393,0.101,"NAN",480.4388,104.5
"2017-12-02 16:00:00",74,762.0467,0.141,12.4,0.093,89.8,89.7,90.6,0.628799,0.1,"NAN",0.7059538,0.111,"NAN",753.2676,127.6
"2017-12-02 16:30:00",75,762.1541,0.198,12.48,0.101,89.6,89.6,90,0.4867707,0.072,"NAN",0.5280024,0.091,"NAN",573.2897,105.1
"2017-12-02 17:00:00",76,762.2484,0.208,12.54,0.065,88.8,88.6,89.6,0.4424596,0.043,"NAN",0.4704881,0.051,"NAN",518.5823,62.75
"2017-12-02 17:30:00",77,762.3336,0.195,12.57,0.083,88.2,88.1,88.8,0.4725817,0.078,"NAN",0.5038477,0.085,"NAN",559.1248,104.2
"2017-12-02 18:00:00",78,762.3254,0.19,12.54,0.096,89,88.1,89,0.4261898,0.052,"NAN",0.4486954,0.058,"NAN",495.097,67.09
"2017-12-02 18:30:00",79,762.3873,0.204,12.6,0.092,88.9,88.9,89.4,0.4379343,0.019,"NAN",0.4584984,0.019,"NAN",515.84,29.06
"2017-12-02 19:00:00",80,762.3588,0.196,12.51,0.068,89.1,88.9,89.2,0.331403,0.038,"NAN",0.3488801,0.041,"NAN",377.9244,51.36
"2017-12-02 19:30:00",81,762.4085,0.183,12.55,0.057,88.8,88.6,89.2,0.3108247,0.013,"NAN",0.3250397,0.014,"NAN",361.7141,20.2
"2017-12-02 20:00:00",82,762.3386,0.182,12.38,0.086,90.1,88.9,90.2,0.2904487,0.029,"NAN",0.3016282,0.029,"NAN",345.8193,35.36
"2017-12-02 20:30:00",83,762.3021,0.205,12.25,0.079,90.1,90.1,90.5,0.2836689,0.026,"NAN",0.2890099,0.02,"NAN",346.5902,34.97
"2017-12-02 21:00:00",84,762.1429,0.173,12.41,0.082,89.6,89.6,90.3,0.3870105,0.124,"NAN",0.3470874,0.087,"NAN",440.1463,141.4
"2017-12-02 21:30:00",85,762.1318,0.181,12.32,0.072,88.7,88.7,89.7,0.2163014,0.067,"NAN",0.2030037,0.035,"NAN",232.9497,58.52
"2017-12-02 22:00:00",86,762.0558,0.162,12.36,0.083,87.2,87.2,88.7,0.3474508,0.097,"NAN",0.2232107,0.101,"NAN",259.0702,78.5
"2017-12-02 22:30:00",87,762.1288,0.159,12.58,0.078,86.2,86.1,87.4,0.3015105,0.078,"NAN",0.1628915,0.076,"NAN",163.1201,52.08
"2017-12-02 23:00:00",88,762.223,0.186,12.49,0.096,87.3,86.2,87.4,0.1690025,0.069,"NAN",0.1279509,0.054,"NAN",46.1839,33.88
"2017-12-02 23:30:00",89,762.4896,0.19,12.27,0.101,88.4,87.3,88.5,0.07901379,0.041,"NAN",0.05850012,0.022,"NAN",-28.46775,20.9
"2017-12-03 00:00:00",90,762.598,0.173,12.06,0.063,89.3,88.4,89.3,0.01616308,0.01,"NAN",0.01190232,0.008,"NAN",-65.52885,6.591
"2017-12-03 00:30:00",91,762.7866,0.196,12.07,0.058,89.2,89.1,89.6,0.0008252637,0.001,"NAN",9.670167E-05,0,"NAN",-61.07886,8.12
"2017-12-03 01:00:00",92,762.8616,0.176,12.11,0.083,88.6,88.5,89.2,0,0,"NAN",0,0,"NAN",-66.71614,9.92
"2017-12-03 01:30:00",93,763.112,0.146,11.98,0.101,88.8,88.6,89,0,0,"NAN",0,0,"NAN",-70.80869,5.767
"2017-12-03 02:00:00",94,763.2842,0.174,11.94,0.072,89,88.7,89.1,0,0,"NAN",0,0,"NAN",-69.72654,5.002
"2017-12-03 02:30:00",95,763.3461,0.182,11.97,0.071,88.3,88.2,89,0,0,"NAN",0,0,"NAN",-74.32178,4.372
"2017-12-03 03:00:00",96,763.3116,0.19,11.96,0.059,88.7,88.2,88.8,0,0,"NAN",0,0,"NAN",-75.63194,4.922
"2017-12-03 03:30:00",97,763.3907,0.179,12.08,0.073,88.5,88.4,89,0,0,"NAN",0,0,"NAN",-60.01815,6.834
"2017-12-03 04:00:00",98,763.3583,0.178,12.16,0.068,88.1,88,88.6,0,0,"NAN",1.611663E-05,0,"NAN",-37.6122,12.8
"2017-12-03 04:30:00",99,763.3755,0.184,12.3,0.061,87.7,87.7,88.2,0,0,"NAN",0,0,"NAN",-46.13307,5.203
"2017-12-03 05:00:00",100,763.2042,0.19,12.25,0.047,87.6,87.6,87.9,0,0,"NAN",0,0,"NAN",-68.2989,4.671
"2017-12-03 05:30:00",101,763.1424,0.181,12.28,0.075,87.4,87.4,87.9,0,0,"NAN",0,0,"NAN",-72.94389,3.966
"2017-12-03 06:00:00",102,763.0278,0.174,12.23,0.06,88.1,87.5,88.1,0,0,"NAN",0,0,"NAN",-79.76997,3.85
"2017-12-03 06:30:00",103,763.0319,0.213,12.25,0.081,88.9,88.2,88.9,0,0,"NAN",0,0,"NAN",-62.7669,17.08
"2017-12-03 07:00:00",104,762.9163,0.162,12.14,0.064,89.3,88.7,89.3,0,0,"NAN",0,0,"NAN",-47.49373,13.78
"2017-12-03 07:30:00",105,762.9235,0.152,12.08,0.093,89.9,89.2,89.9,0,0,"NAN",0,0,"NAN",-32.44918,3.953
"2017-12-03 08:00:00",106,762.9072,0.168,11.98,0.04,90.5,89.8,90.6,0,0,"NAN",0,0,"NAN",-32.39293,4.735
"2017-12-03 08:30:00",107,763.0947,0.16,12.05,0.057,90.9,90.5,90.9,0,0,"NAN",0,0,"NAN",-19.27738,5.94
"2017-12-03 09:00:00",108,763.1332,0.172,12.11,0.049,90.9,90.8,91,0,0,"NAN",0,0,"NAN",-12.34047,0.985
"2017-12-03 09:30:00",109,763.2842,0.183,12.19,0.066,91,90.8,91.1,0.0003555906,0,"NAN",0.0002739815,0,"NAN",-10.79021,1.054
"2017-12-03 10:00:00",110,763.4293,0.191,12.14,0.044,90.7,90.7,91.1,0.004303912,0.003,"NAN",0.004943707,0.003,"NAN",-4.076262,4.347
"2017-12-03 10:30:00",111,763.7009,0.185,12.23,0.059,90.4,90.3,90.9,0.01654794,0.004,"NAN",0.01792949,0.004,"NAN",13.26039,5.343
"2017-12-03 11:00:00",112,763.9016,0.165,12.25,0.045,90.3,90.2,90.4,0.02403225,0.002,"NAN",0.02519009,0.002,"NAN",15.25677,10.5
"2017-12-03 11:30:00",113,764.0566,0.18,12.26,0.048,90.2,90,90.4,0.04658539,0.012,"NAN",0.04810769,0.011,"NAN",51.51945,19.27
"2017-12-03 12:00:00",114,764.2432,0.184,12.31,0.039,90.6,90,90.6,0.09498224,0.05,"NAN",0.1029572,0.054,"NAN",124.7711,77.82
"2017-12-03 12:30:00",115,764.3475,0.175,12.48,0.084,90.1,90.1,90.8,0.1904682,0.025,"NAN",0.2058868,0.027,"NAN",271.1127,37.23
"2017-12-03 13:00:00",116,764.3912,0.171,12.79,0.116,88.6,88.5,90,0.3067786,0.078,"NAN",0.3730026,0.111,"NAN",395.3073,79.82
"2017-12-03 13:30:00",117,764.4428,0.173,13.45,0.356,85.1,85.1,88.5,0.4389477,0.151,"NAN",0.6190549,0.122,"NAN",696.6464,215
"2017-12-03 14:00:00",118,764.4144,0.155,14.23,0.157,80.9,80.9,85,0.5633718,0.152,"NAN",0.6453476,0.132,"NAN",820.2054,171.3
"2017-12-03 14:30:00",119,764.5208,0.175,14.46,0.235,78.82,78.56,81.1,0.7252712,0.21,"NAN",0.831705,0.158,"NAN",1035.698,205.7
"2017-12-03 15:00:00",120,764.53,0.167,14.15,0.118,80.1,78.78,80.1,0.8118621,0.156,"NAN",0.8970385,0.065,"NAN",1094.409,76.09
"2017-12-03 15:30:00",121,764.7135,0.143,14.08,0.119,80.2,79.44,80.7,0.7506853,0.102,"NAN",0.7954786,0.088,"NAN",1002.168,92.6
"2017-12-03 16:00:00",122,764.663,0.17,13.88,0.121,79.28,78.99,80.3,0.8462978,0.175,"NAN",0.8762211,0.175,"NAN",1097.937,212.7
"2017-12-03 16:30:00",123,764.7899,0.171,13.87,0.211,82.5,79.25,82.7,0.8941743,0.148,"NAN",0.9356956,0.141,"NAN",1103.535,177.5
"2017-12-03 17:00:00",124,764.5491,0.171,13.74,0.114,81.7,81.7,82.9,0.9195245,0.143,"NAN",0.9904124,0.063,"NAN",1208.25,84.2
"2017-12-03 17:30:00",125,764.4193,0.221,13.85,0.082,80.6,80.2,81.7,0.9808013,0.017,"NAN",1.01607,0.004,"NAN",1249.688,26.16
"2017-12-03 18:00:00",126,764.3027,0.136,14.01,0.078,79.16,79.16,80.8,0.9306701,0.146,"NAN",0.9946797,0.011,"NAN",1206.88,39.56
"2017-12-03 18:30:00",127,764.2397,0.204,14.13,0.095,78.47,78.47,79.56,0.9058954,0.045,"NAN",0.9609435,0.012,"NAN",1080.242,48.81
"2017-12-03 19:00:00",128,764.0727,0.145,14.18,0.119,77.76,77.59,79.06,0.6609933,0.308,"NAN",0.90358,0.026,"NAN",964.9355,47.37
"2017-12-03 19:30:00",129,763.9836,0.206,14.29,0.115,78.91,77.2,79.11,0.6709443,0.239,"NAN",0.8375881,0.033,"NAN",857.149,47.57
"2017-12-03 20:00:00",130,763.6948,0.169,14.05,0.105,81.6,78.74,81.8,0.4257354,0.294,"NAN",0.7672202,0.029,"NAN",726.6898,54.95
"2017-12-03 20:30:00",131,763.6601,0.179,13.85,0.147,83,81.5,83.5,0.4503473,0.225,"NAN",0.658081,0.043,"NAN",575.4554,37.25
"2017-12-03 21:00:00",132,763.4476,0.172,13.78,0.127,83.8,82.8,83.8,0.2746977,0.186,"NAN",0.5399974,0.04,"NAN",474.6997,44.37
"2017-12-03 21:30:00",133,763.3121,0.172,13.58,0.097,85,83.6,85.1,0.3086494,0.135,"NAN",0.4362189,0.039,"NAN",341.0824,41.96
"2017-12-03 22:00:00",134,763.181,0.17,13.54,0.084,85.8,85.1,85.8,0.2387001,0.105,"NAN",0.3120821,0.058,"NAN",229.3675,46.43
"2017-12-03 22:30:00",135,763.1111,0.217,13.46,0.089,85.7,85.4,86,0.1673421,0.077,"NAN",0.2233503,0.041,"NAN",109.0043,39.97
"2017-12-03 23:00:00",136,762.8969,0.147,13.47,0.056,86.1,85.6,86.2,0.08615734,0.056,"NAN",0.1425505,0.028,"NAN",13.90845,30.7
"2017-12-03 23:30:00",137,762.7565,0.196,13.57,0.063,87.9,86.1,87.9,0.05378095,0.04,"NAN",0.0673282,0.022,"NAN",-42.54504,17.35
"2017-12-04 00:00:00",138,762.6357,0.146,13.44,0.04,89.4,87.9,89.5,0.01440045,0.012,"NAN",0.0150822,0.012,"NAN",-69.5312,5.987
"2017-12-04 00:30:00",139,762.5331,0.2,13.5,0.042,90.2,89.5,90.2,0.0008522036,0.001,"NAN",0.000120885,0,"NAN",-79.77022,7.624
"2017-12-04 01:00:00",140,762.368,0.165,13.46,0.043,90.7,90.2,90.7,3.35506E-06,0,"NAN",0,0,"NAN",-80.62224,6.862
"2017-12-04 01:30:00",141,762.3447,0.195,13.52,0.045,91.6,90.8,91.7,1.006479E-05,0,"NAN",0,0,"NAN",-85.23891,6.845
"2017-12-04 02:00:00",142,762.3447,0.168,13.57,0.037,92.7,91.7,92.8,0,0,"NAN",0,0,"NAN",-85.33178,6.822
"2017-12-04 02:30:00",143,762.2545,0.196,13.54,0.058,93.2,92.8,93.2,0,0,"NAN",0,0,"NAN",-84.366,5.152